EXS3UH GCLP-EGBB

Flight info

Callsign EXS3UH
Flight time N/A
Altitude 34000
Route VASTO DCT NIDEB DCT TIGGI DCT UNPOT DCT PINEK DCT KORUL DCT EBOMO DCT RUSIB DCT NOZHU DCT SHIRI DCT TOJAQ P16 EPACE N91 FIGZI
Aircraft A21N/M-SDE3FGHIRWY/LB1

Departure

Time 2026-05-07 20:41
Airport Gran Canaria Airport (GCLP)

Arrival

Time N/A
Airport Birmingham Airport (EGBB)
Time Latitude Longitude Altitude Speed Heading
2026-05-07 20:03 27.93604 -15.38923 90 ft 0 kts 291°
2026-05-07 20:27 27.93602 -15.38917 90 ft 4 kts 291°
2026-05-07 20:27 27.93593 -15.38888 91 ft 4 kts 290°
2026-05-07 20:28 27.93585 -15.38863 89 ft 4 kts 272°
2026-05-07 20:28 27.93592 -15.38840 90 ft 4 kts 214°
2026-05-07 20:28 27.93610 -15.38830 91 ft 1 kts 201°
2026-05-07 20:28 27.93614 -15.38829 89 ft 0 kts 201°
2026-05-07 20:32 27.93602 -15.38834 89 ft 4 kts 201°
2026-05-07 20:32 27.93563 -15.38850 89 ft 8 kts 201°
2026-05-07 20:32 27.93505 -15.38872 92 ft 9 kts 194°
2026-05-07 20:32 27.93454 -15.38863 87 ft 9 kts 137°
2026-05-07 20:33 27.93425 -15.38802 87 ft 8 kts 110°
2026-05-07 20:33 27.93380 -15.38768 81 ft 10 kts 190°
2026-05-07 20:33 27.93309 -15.38798 81 ft 13 kts 201°
2026-05-07 20:33 27.93220 -15.38837 80 ft 15 kts 201°
2026-05-07 20:34 27.93115 -15.38890 92 ft 18 kts 205°
2026-05-07 20:34 27.92984 -15.38948 84 ft 20 kts 201°
2026-05-07 20:34 27.92856 -15.39006 89 ft 22 kts 201°
2026-05-07 20:34 27.92710 -15.39071 93 ft 21 kts 201°
2026-05-07 20:35 27.92579 -15.39127 98 ft 19 kts 201°
2026-05-07 20:35 27.92457 -15.39181 100 ft 19 kts 201°
2026-05-07 20:35 27.92329 -15.39238 103 ft 20 kts 201°
2026-05-07 20:35 27.92219 -15.39286 104 ft 14 kts 201°
2026-05-07 20:36 27.92123 -15.39307 100 ft 14 kts 176°
2026-05-07 20:36 27.92030 -15.39300 97 ft 12 kts 176°
2026-05-07 20:36 27.91956 -15.39294 94 ft 10 kts 176°
2026-05-07 20:36 27.91910 -15.39256 92 ft 6 kts 107°
2026-05-07 20:37 27.91916 -15.39222 93 ft 5 kts 37°
2026-05-07 20:37 27.91929 -15.39215 92 ft 0 kts 22°
2026-05-07 20:40 27.92022 -15.39172 92 ft 44 kts 21°
2026-05-07 20:40 27.92524 -15.38951 71 ft 108 kts 21°
2026-05-07 20:40 27.93393 -15.38566 63 ft 158 kts 21°
2026-05-07 20:40 27.94458 -15.38085 397 ft 165 kts 22°
2026-05-07 20:41 27.95524 -15.37589 926 ft 166 kts 20°
2026-05-07 20:41 27.96621 -15.37128 1386 ft 175 kts 20°
2026-05-07 20:41 27.97829 -15.36620 1708 ft 196 kts 20°
2026-05-07 20:41 27.99162 -15.36054 2173 ft 212 kts 20°
2026-05-07 20:42 28.00614 -15.35432 2509 ft 236 kts 20°
2026-05-07 20:42 28.02217 -15.34749 2969 ft 253 kts 20°
2026-05-07 20:42 28.03882 -15.34040 3700 ft 258 kts 20°
2026-05-07 20:42 28.05572 -15.33313 4474 ft 261 kts 20°
2026-05-07 20:43 28.07283 -15.32569 5233 ft 265 kts 20°
2026-05-07 20:43 28.09014 -15.31816 5975 ft 268 kts 19°
2026-05-07 20:43 28.10768 -15.31051 6693 ft 272 kts 19°
2026-05-07 20:43 28.12550 -15.30273 7404 ft 276 kts 19°
2026-05-07 20:44 28.14367 -15.29514 8117 ft 280 kts 16°
2026-05-07 20:44 28.16251 -15.28930 8792 ft 283 kts 13°
2026-05-07 20:44 28.18177 -15.28391 9463 ft 287 kts 12°
2026-05-07 20:44 28.20136 -15.27845 10125 ft 293 kts 12°
2026-05-07 20:45 28.22171 -15.27270 10491 ft 310 kts 12°
2026-05-07 20:45 28.24325 -15.26659 10771 ft 329 kts 12°
2026-05-07 20:45 28.26611 -15.26010 11122 ft 345 kts 12°
2026-05-07 20:45 28.28960 -15.25340 11706 ft 351 kts 12°
2026-05-07 20:46 28.31342 -15.24658 12352 ft 356 kts 12°
2026-05-07 20:46 28.33675 -15.23658 12978 ft 363 kts 27°
2026-05-07 20:46 28.35825 -15.22110 13614 ft 368 kts 32°
2026-05-07 20:46 28.37952 -15.20467 14233 ft 372 kts 32°
2026-05-07 20:47 28.40108 -15.18813 14833 ft 376 kts 32°
2026-05-07 20:47 28.42299 -15.17160 15425 ft 380 kts 31°
2026-05-07 20:47 28.44516 -15.15493 15998 ft 384 kts 31°
2026-05-07 20:47 28.46757 -15.13814 16558 ft 388 kts 31°
2026-05-07 20:48 28.49022 -15.12122 17117 ft 392 kts 31°
2026-05-07 20:48 28.51306 -15.10409 17650 ft 396 kts 31°
2026-05-07 20:48 28.53614 -15.08674 18168 ft 399 kts 31°
2026-05-07 20:48 28.55950 -15.06933 18670 ft 403 kts 31°
2026-05-07 20:49 28.58296 -15.05168 19175 ft 407 kts 31°
2026-05-07 20:49 28.60666 -15.03382 19673 ft 410 kts 31°
2026-05-07 20:49 28.63054 -15.01585 20153 ft 413 kts 31°
2026-05-07 20:49 28.65461 -14.99776 20624 ft 416 kts 31°
2026-05-07 20:50 28.67888 -14.97959 21091 ft 419 kts 31°
2026-05-07 20:50 28.70338 -14.96127 21549 ft 423 kts 31°
2026-05-07 20:50 28.72802 -14.94274 22009 ft 426 kts 31°
2026-05-07 20:50 28.75285 -14.92410 22459 ft 429 kts 31°
2026-05-07 20:51 28.77783 -14.90529 22902 ft 432 kts 31°
2026-05-07 20:51 28.80296 -14.88632 23322 ft 435 kts 31°
2026-05-07 20:51 28.82831 -14.86720 23732 ft 438 kts 31°
2026-05-07 20:51 28.85380 -14.84800 24136 ft 441 kts 31°
2026-05-07 20:52 28.87951 -14.82862 24527 ft 444 kts 31°
2026-05-07 20:52 28.90534 -14.80912 24904 ft 446 kts 31°
2026-05-07 20:52 28.93129 -14.78950 25262 ft 449 kts 31°
2026-05-07 20:52 28.94855 -14.77642 25505 ft 451 kts 31°
2026-05-07 20:53 28.98364 -14.74978 25971 ft 454 kts 31°
2026-05-07 20:53 29.00107 -14.73651 26198 ft 456 kts 31°
2026-05-07 20:53 29.02754 -14.71640 26525 ft 458 kts 31°
2026-05-07 20:53 29.05418 -14.69623 26848 ft 460 kts 31°
2026-05-07 20:54 29.08086 -14.67593 27157 ft 462 kts 31°
2026-05-07 20:54 29.10772 -14.65549 27448 ft 465 kts 31°
2026-05-07 20:54 29.13468 -14.63494 27729 ft 467 kts 31°
2026-05-07 20:54 29.16175 -14.61433 28025 ft 469 kts 31°
2026-05-07 20:55 29.18900 -14.59362 28298 ft 471 kts 31°
2026-05-07 20:55 29.21630 -14.57285 28556 ft 473 kts 31°
2026-05-07 20:55 29.24375 -14.55198 28817 ft 475 kts 31°
2026-05-07 20:55 29.27131 -14.53101 29079 ft 477 kts 31°
2026-05-07 20:56 29.29902 -14.50996 29343 ft 478 kts 31°
2026-05-07 20:56 29.32680 -14.48883 29585 ft 480 kts 31°
2026-05-07 20:56 29.35464 -14.46758 29835 ft 482 kts 31°
2026-05-07 20:56 29.38259 -14.44619 30083 ft 484 kts 31°
2026-05-07 20:57 29.41064 -14.42479 30351 ft 484 kts 31°
2026-05-07 20:57 29.43866 -14.40330 30662 ft 484 kts 31°
2026-05-07 20:57 29.46660 -14.38191 30976 ft 483 kts 31°
2026-05-07 20:57 29.49456 -14.36057 31275 ft 482 kts 31°
2026-05-07 20:58 29.52247 -14.33921 31555 ft 482 kts 31°
2026-05-07 20:58 29.55026 -14.31786 31860 ft 481 kts 31°
2026-05-07 20:58 29.57805 -14.29653 32133 ft 480 kts 31°
2026-05-07 20:58 29.60580 -14.27518 32383 ft 480 kts 31°
2026-05-07 20:59 29.63347 -14.25384 32639 ft 479 kts 31°
2026-05-07 20:59 29.66111 -14.23246 32876 ft 479 kts 31°
2026-05-07 20:59 29.68883 -14.21114 33114 ft 478 kts 31°
2026-05-07 20:59 29.71643 -14.18987 33352 ft 477 kts 31°
2026-05-07 21:00 29.74368 -14.16897 33567 ft 477 kts 31°
2026-05-07 21:00 29.77127 -14.14781 33774 ft 476 kts 31°
2026-05-07 21:00 29.79884 -14.12661 33963 ft 476 kts 31°
2026-05-07 21:01 29.85427 -14.08382 34052 ft 476 kts 31°
2026-05-07 21:01 29.90923 -14.04129 34030 ft 476 kts 31°
2026-05-07 21:02 29.96417 -13.99871 34022 ft 476 kts 31°
2026-05-07 21:02 30.01915 -13.95605 34015 ft 476 kts 31°
2026-05-07 21:03 30.07401 -13.91338 34024 ft 476 kts 31°
2026-05-07 21:03 30.12891 -13.87073 34023 ft 476 kts 31°
2026-05-07 21:04 30.18378 -13.82799 34011 ft 475 kts 31°
2026-05-07 21:04 30.23861 -13.78521 34011 ft 475 kts 31°
2026-05-07 21:05 30.29343 -13.74240 34008 ft 475 kts 31°
2026-05-07 21:05 30.34788 -13.69977 34011 ft 476 kts 31°
2026-05-07 21:06 30.40266 -13.65677 34012 ft 476 kts 31°
2026-05-07 21:06 30.45744 -13.61375 34009 ft 475 kts 31°
2026-05-07 21:07 30.51233 -13.57101 34006 ft 475 kts 28°
2026-05-07 21:07 30.57011 -13.53425 34000 ft 473 kts 25°
2026-05-07 21:08 30.62817 -13.49825 33999 ft 473 kts 25°
2026-05-07 21:08 30.68623 -13.46204 34001 ft 474 kts 25°
2026-05-07 21:09 30.74424 -13.42573 34000 ft 474 kts 25°
2026-05-07 21:09 30.80227 -13.38926 34000 ft 474 kts 25°
2026-05-07 21:10 30.86028 -13.35265 34001 ft 474 kts 25°
2026-05-07 21:10 30.91834 -13.31613 34002 ft 474 kts 25°
2026-05-07 21:11 30.97639 -13.27945 34001 ft 475 kts 25°
2026-05-07 21:11 31.06344 -13.22418 33999 ft 476 kts 26°
2026-05-07 21:12 31.12215 -13.18695 33999 ft 484 kts 25°
2026-05-07 21:12 31.18132 -13.14927 33991 ft 484 kts 25°
2026-05-07 21:13 31.24051 -13.11161 33990 ft 485 kts 25°
2026-05-07 21:13 31.29971 -13.07393 33990 ft 485 kts 25°
2026-05-07 21:14 31.35892 -13.03620 33990 ft 485 kts 25°
2026-05-07 21:14 31.41813 -12.99842 33991 ft 485 kts 25°
2026-05-07 21:15 31.47748 -12.96065 33992 ft 485 kts 25°
2026-05-07 21:15 31.53677 -12.92281 33992 ft 485 kts 25°
2026-05-07 21:16 31.59609 -12.88473 33993 ft 486 kts 25°
2026-05-07 21:16 31.65543 -12.84661 33992 ft 486 kts 25°
2026-05-07 21:17 31.71482 -12.80856 33990 ft 487 kts 25°
2026-05-07 21:17 31.77429 -12.77037 33990 ft 487 kts 25°
2026-05-07 21:18 31.83372 -12.73204 33989 ft 488 kts 25°
2026-05-07 21:18 31.89323 -12.69359 33989 ft 488 kts 25°
2026-05-07 21:19 31.95275 -12.65512 33990 ft 488 kts 25°
2026-05-07 21:19 32.01236 -12.61653 33989 ft 489 kts 26°
2026-05-07 21:20 32.07191 -12.57770 33990 ft 489 kts 26°
2026-05-07 21:20 32.13156 -12.53890 33989 ft 489 kts 26°
2026-05-07 21:21 32.19118 -12.50013 33989 ft 489 kts 26°
2026-05-07 21:21 32.25076 -12.46113 33990 ft 489 kts 26°
2026-05-07 21:22 32.31038 -12.42223 33990 ft 489 kts 26°
2026-05-07 21:22 32.36996 -12.38332 33990 ft 489 kts 26°
2026-05-07 21:23 32.42910 -12.34443 33990 ft 489 kts 26°
2026-05-07 21:23 32.48870 -12.30535 33992 ft 490 kts 26°
2026-05-07 21:24 32.54828 -12.26627 33990 ft 489 kts 26°
2026-05-07 21:24 32.60789 -12.22726 33990 ft 489 kts 26°
2026-05-07 21:25 32.66739 -12.18804 33992 ft 489 kts 26°
2026-05-07 21:25 32.72685 -12.14869 33989 ft 489 kts 26°
2026-05-07 21:26 32.78631 -12.10955 33991 ft 489 kts 26°
2026-05-07 21:26 32.84576 -12.07032 33990 ft 489 kts 26°
2026-05-07 21:27 32.90509 -12.03101 33992 ft 488 kts 27°
2026-05-07 21:27 32.96496 -11.99287 33984 ft 486 kts 19°
2026-05-07 21:28 33.02930 -11.96954 33991 ft 483 kts 12°
2026-05-07 21:28 33.09406 -11.94796 33990 ft 483 kts 13°
2026-05-07 21:29 33.15864 -11.92587 33990 ft 483 kts 13°
2026-05-07 21:29 33.22337 -11.90386 33981 ft 484 kts 13°
2026-05-07 21:30 33.28811 -11.88175 33980 ft 484 kts 13°
2026-05-07 21:30 33.35283 -11.85958 33980 ft 484 kts 13°
2026-05-07 21:31 33.41757 -11.83737 33979 ft 484 kts 13°
2026-05-07 21:31 33.48230 -11.81515 33980 ft 484 kts 13°
2026-05-07 21:32 33.54711 -11.79298 33980 ft 484 kts 13°
2026-05-07 21:32 33.61194 -11.77071 33980 ft 485 kts 13°
2026-05-07 21:33 33.67673 -11.74831 33980 ft 485 kts 14°
2026-05-07 21:33 33.74157 -11.72581 33980 ft 485 kts 13°
2026-05-07 21:34 33.80644 -11.70367 33977 ft 485 kts 13°
2026-05-07 21:34 33.87135 -11.68130 33970 ft 485 kts 13°
2026-05-07 21:35 33.93623 -11.65880 33967 ft 485 kts 14°
2026-05-07 21:35 34.00102 -11.63624 33967 ft 485 kts 14°
2026-05-07 21:36 34.05489 -11.61748 33969 ft 484 kts 14°
2026-05-07 21:36 34.11964 -11.59495 33969 ft 484 kts 14°
2026-05-07 21:37 34.18439 -11.57237 33969 ft 484 kts 14°
2026-05-07 21:37 34.24906 -11.54975 33969 ft 484 kts 14°
2026-05-07 21:38 34.31369 -11.52700 33973 ft 484 kts 14°
2026-05-07 21:38 34.37828 -11.50426 33968 ft 483 kts 14°
2026-05-07 21:39 34.44296 -11.48170 33969 ft 483 kts 14°
2026-05-07 21:39 34.50750 -11.45896 33963 ft 483 kts 14°
2026-05-07 21:40 34.57196 -11.43610 33956 ft 483 kts 14°
2026-05-07 21:40 34.63601 -11.41357 33965 ft 482 kts 14°
2026-05-07 21:41 34.70086 -11.39054 33961 ft 482 kts 14°
2026-05-07 21:41 34.76478 -11.36779 33965 ft 482 kts 14°
2026-05-07 21:42 34.82913 -11.34492 33962 ft 482 kts 14°
2026-05-07 21:42 34.89347 -11.32215 33966 ft 482 kts 14°
2026-05-07 21:43 34.95781 -11.29931 33963 ft 481 kts 15°
2026-05-07 21:43 35.02204 -11.27638 33955 ft 481 kts 15°
2026-05-07 21:44 35.08626 -11.25343 33961 ft 481 kts 15°
2026-05-07 21:44 35.15049 -11.23068 33968 ft 480 kts 15°
2026-05-07 21:45 35.21466 -11.20790 33954 ft 480 kts 15°
2026-05-07 21:45 35.27887 -11.18491 33952 ft 480 kts 15°
2026-05-07 21:46 35.34290 -11.16181 33953 ft 480 kts 15°
2026-05-07 21:46 35.40700 -11.13848 33946 ft 480 kts 15°
2026-05-07 21:47 35.47103 -11.11533 33949 ft 480 kts 15°
2026-05-07 21:47 35.53507 -11.09220 33948 ft 480 kts 15°
2026-05-07 21:48 35.59908 -11.06911 33944 ft 479 kts 15°
2026-05-07 21:48 35.66308 -11.04589 33951 ft 479 kts 15°
2026-05-07 21:49 35.72708 -11.02278 33946 ft 479 kts 15°
2026-05-07 21:49 35.79101 -10.99957 33950 ft 479 kts 15°
2026-05-07 21:50 35.85498 -10.97646 33954 ft 479 kts 15°
2026-05-07 21:50 35.91894 -10.95316 33941 ft 479 kts 15°
2026-05-07 21:51 35.98262 -10.92914 33948 ft 479 kts 17°
2026-05-07 21:51 36.04586 -10.90321 33949 ft 478 kts 18°
2026-05-07 21:52 36.10879 -10.87729 33950 ft 477 kts 18°
2026-05-07 21:52 36.17177 -10.85140 33953 ft 477 kts 18°
2026-05-07 21:53 36.23470 -10.82543 33957 ft 477 kts 18°
2026-05-07 21:53 36.29760 -10.79947 33950 ft 476 kts 18°
2026-05-07 21:54 36.36044 -10.77339 33953 ft 476 kts 18°
2026-05-07 21:54 36.42294 -10.74746 33936 ft 476 kts 18°
2026-05-07 21:55 36.48580 -10.72137 33936 ft 476 kts 18°
2026-05-07 21:55 36.54861 -10.69524 33938 ft 476 kts 18°
2026-05-07 21:56 36.61143 -10.66904 33936 ft 476 kts 17°
2026-05-07 21:56 36.67420 -10.64281 33936 ft 476 kts 18°
2026-05-07 21:57 36.73695 -10.61652 33944 ft 475 kts 18°
2026-05-07 21:57 36.79962 -10.59029 33936 ft 475 kts 18°
2026-05-07 21:58 36.86233 -10.56396 33937 ft 475 kts 18°
2026-05-07 21:58 36.92497 -10.53760 33937 ft 475 kts 18°
2026-05-07 21:59 36.98753 -10.51115 33943 ft 475 kts 18°
2026-05-07 21:59 37.05001 -10.48448 33949 ft 474 kts 18°
2026-05-07 22:00 37.11254 -10.45799 33934 ft 474 kts 18°
2026-05-07 22:00 37.17502 -10.43161 33937 ft 474 kts 18°
2026-05-07 22:01 37.23747 -10.40531 33938 ft 473 kts 18°
2026-05-07 22:01 37.29983 -10.37878 33944 ft 473 kts 18°
2026-05-07 22:02 37.36179 -10.35249 33940 ft 472 kts 18°
2026-05-07 22:02 37.42397 -10.32607 33944 ft 472 kts 18°
2026-05-07 22:03 37.48616 -10.29951 33946 ft 471 kts 18°
2026-05-07 22:03 37.54825 -10.27295 33937 ft 471 kts 18°
2026-05-07 22:04 37.61025 -10.24633 33936 ft 471 kts 18°
2026-05-07 22:04 37.67223 -10.21965 33936 ft 470 kts 18°
2026-05-07 22:05 37.73419 -10.19305 33936 ft 470 kts 18°
2026-05-07 22:05 37.79617 -10.16635 33937 ft 470 kts 18°
2026-05-07 22:06 37.85809 -10.13962 33933 ft 470 kts 18°